When you browse on this site, cookies collect data to enhance your experience and personalize the content and advertising you see.
Visit our Privacy Policy to learn more. By continuing to use the site, you agree to this use of cookies and data.
  • en Suisse
  • Liste des pays
  • À 7 jours
  • Température de l'eau
  • Carte météo
  • Widgets météo
  • user-avatar
    Se connecter

    Météo par heure à Ladlou

    Ce jour, 15 Décembre, Dimanche

    Heure Température Précipitation Vent Pression Humidité
    00:00 -1°C° 0 mm 6 m/s 698 mmHg 89%
    01:00 -2°C° 0 mm 6 m/s 699 mmHg 88%
    02:00 -2°C° 0 mm 7 m/s 700 mmHg 87%
    03:00 -4°C° 0 mm 8 m/s 701 mmHg 87%
    04:00 -4°C° 0 mm 8 m/s 701 mmHg 86%
    05:00 -4°C° 0 mm 8 m/s 702 mmHg 84%
    06:00 -4°C° 0 mm 8 m/s 703 mmHg 83%
    07:00 -3°C° 0 mm 7 m/s 704 mmHg 81%
    08:00 -4°C° 0.1 mm 8 m/s 705 mmHg 80%
    09:00 -4°C° 0.1 mm 8 m/s 706 mmHg 80%
    10:00 -4°C° 0.1 mm 9 m/s 706 mmHg 79%
    11:00 -4°C° 0.1 mm 9 m/s 707 mmHg 76%
    12:00 -4°C° 0.1 mm 9 m/s 708 mmHg 73%
    13:00 -4°C° 0.1 mm 9 m/s 709 mmHg 71%
    14:00 -5°C° 0 mm 9 m/s 710 mmHg 69%
    15:00 -6°C° 0 mm 8 m/s 710 mmHg 67%
    16:00 -7°C° 0 mm 8 m/s 711 mmHg 65%
    17:00 -8°C° 0 mm 8 m/s 712 mmHg 65%
    18:00 -10°C° 0 mm 8 m/s 714 mmHg 65%
    19:00 -11°C° 0 mm 7 m/s 715 mmHg 66%
    20:00 -11°C° 0 mm 7 m/s 716 mmHg 63%
    21:00 -11°C° 0 mm 7 m/s 716 mmHg 61%
    22:00 -11°C° 0 mm 6 m/s 717 mmHg 58%
    23:00 -11°C° 0 mm 6 m/s 718 mmHg 57%

    Demain, 16 Décembre, Lundi

    Heure Température Précipitation Vent Pression Humidité
    00:00 -11°C° 0 mm 6 m/s 719 mmHg 56%
    01:00 -11°C° 0 mm 5 m/s 719 mmHg 55%
    02:00 -12°C° 0 mm 5 m/s 720 mmHg 55%
    03:00 -11°C° 0 mm 4 m/s 720 mmHg 55%
    04:00 -11°C° 0 mm 4 m/s 720 mmHg 55%
    05:00 -10°C° 0 mm 3 m/s 721 mmHg 57%
    06:00 -10°C° 0 mm 3 m/s 721 mmHg 59%
    07:00 -9°C° 0 mm 2 m/s 722 mmHg 61%
    08:00 -8°C° 0 mm 2 m/s 722 mmHg 58%
    09:00 -8°C° 0 mm 2 m/s 722 mmHg 54%
    10:00 -7°C° 0 mm 2 m/s 722 mmHg 50%
    11:00 -6°C° 0 mm 2 m/s 722 mmHg 49%
    12:00 -6°C° 0 mm 2 m/s 722 mmHg 48%
    13:00 -5°C° 0 mm 2 m/s 722 mmHg 47%
    14:00 -5°C° 0 mm 2 m/s 722 mmHg 51%
    15:00 -4°C° 0 mm 1 m/s 722 mmHg 55%
    16:00 -4°C° 0 mm 1 m/s 722 mmHg 58%
    17:00 -4°C° 0 mm 1 m/s 721 mmHg 62%
    18:00 -6°C° 0 mm 0 m/s 721 mmHg 65%
    19:00 -6°C° 0 mm 0 m/s 721 mmHg 68%
    20:00 -6°C° 0 mm 0 m/s 721 mmHg 69%
    21:00 -6°C° 0 mm 0 m/s 721 mmHg 71%
    22:00 -6°C° 0 mm 0 m/s 721 mmHg 72%
    23:00 -6°C° 0 mm 0 m/s 720 mmHg 72%

    Après-demain, 17 Décembre, Mardi

    Heure Température Précipitation Vent Pression Humidité
    00:00 -6°C° 0 mm 0 m/s 720 mmHg 72%
    01:00 -6°C° 0 mm 0 m/s 720 mmHg 72%
    02:00 -5°C° 0 mm 0 m/s 719 mmHg 72%
    03:00 -5°C° 0 mm 0 m/s 719 mmHg 72%
    04:00 -4°C° 0 mm 1 m/s 718 mmHg 72%
    05:00 -4°C° 0.2 mm 1 m/s 717 mmHg 77%
    06:00 -4°C° 0.2 mm 1 m/s 717 mmHg 83%
    07:00 -4°C° 0.2 mm 1 m/s 717 mmHg 88%
    08:00 -4°C° 0.8 mm 1 m/s 716 mmHg 89%
    09:00 -4°C° 0.8 mm 1 m/s 715 mmHg 90%
    10:00 -4°C° 0.8 mm 1 m/s 715 mmHg 90%
    11:00 -3°C° 1.3 mm 1 m/s 714 mmHg 91%
    12:00 -3°C° 1.3 mm 1 m/s 713 mmHg 91%
    13:00 -3°C° 1.3 mm 1 m/s 712 mmHg 92%
    14:00 -3°C° 1 mm 1 m/s 712 mmHg 93%
    15:00 -3°C° 1 mm 1 m/s 712 mmHg 94%
    16:00 -3°C° 1 mm 1 m/s 712 mmHg 95%
    17:00 -3°C° 0.3 mm 1 m/s 712 mmHg 95%
    18:00 -4°C° 0.3 mm 1 m/s 712 mmHg 96%
    19:00 -4°C° 0.3 mm 1 m/s 712 mmHg 96%
    20:00 -4°C° 0 mm 1 m/s 712 mmHg 96%
    21:00 -6°C° 0 mm 1 m/s 712 mmHg 96%
    22:00 -6°C° 0 mm 1 m/s 712 mmHg 96%
    23:00 -6°C° 0 mm 1 m/s 712 mmHg 95%

    18 Décembre, Mercredi

    Heure Température Précipitation Vent Pression Humidité
    00:00 -7°C° 0 mm 1 m/s 712 mmHg 95%
    01:00 -7°C° 0 mm 1 m/s 713 mmHg 95%
    02:00 -7°C° 0 mm 1 m/s 713 mmHg 95%
    03:00 -7°C° 0 mm 1 m/s 713 mmHg 95%
    04:00 -8°C° 0 mm 1 m/s 713 mmHg 95%
    05:00 -8°C° 0 mm 1 m/s 713 mmHg 95%
    06:00 -8°C° 0 mm 1 m/s 713 mmHg 95%
    07:00 -9°C° 0 mm 1 m/s 713 mmHg 95%
    08:00 -8°C° 0 mm 2 m/s 713 mmHg 90%
    09:00 -8°C° 0 mm 3 m/s 713 mmHg 84%
    10:00 -7°C° 0 mm 4 m/s 713 mmHg 78%
    11:00 -7°C° 0.1 mm 4 m/s 712 mmHg 78%
    12:00 -7°C° 0.1 mm 5 m/s 712 mmHg 78%
    13:00 -7°C° 0.1 mm 5 m/s 711 mmHg 78%
    14:00 -8°C° 0.2 mm 5 m/s 711 mmHg 80%
    15:00 -8°C° 0.2 mm 5 m/s 711 mmHg 82%
    16:00 -10°C° 0.2 mm 5 m/s 711 mmHg 84%
    17:00 -11°C° 0.1 mm 5 m/s 712 mmHg 80%
    18:00 -13°C° 0.1 mm 5 m/s 712 mmHg 76%
    19:00 -14°C° 0.1 mm 5 m/s 713 mmHg 73%
    20:00 -15°C° 0 mm 5 m/s 713 mmHg 72%
    21:00 -17°C° 0 mm 6 m/s 714 mmHg 71%
    22:00 -18°C° 0 mm 6 m/s 714 mmHg 71%
    23:00 -21°C° 0 mm 6 m/s 714 mmHg 72%

    19 Décembre, Jeudi

    Heure Température Précipitation Vent Pression Humidité
    00:00 -22°C° 0 mm 6 m/s 714 mmHg 73%
    01:00 -23°C° 0 mm 6 m/s 715 mmHg 74%
    02:00 -22°C° 0 mm 5 m/s 716 mmHg 75%
    03:00 -22°C° 0 mm 5 m/s 716 mmHg 77%
    04:00 -22°C° 0 mm 4 m/s 717 mmHg 78%
    05:00 -22°C° 0 mm 4 m/s 718 mmHg 80%
    06:00 -22°C° 0 mm 3 m/s 718 mmHg 82%
    07:00 -20°C° 0 mm 2 m/s 719 mmHg 84%
    08:00 -21°C° 0 mm 3 m/s 720 mmHg 80%
    09:00 -21°C° 0 mm 3 m/s 721 mmHg 77%
    10:00 -20°C° 0 mm 4 m/s 721 mmHg 73%
    11:00 -19°C° 0 mm 4 m/s 721 mmHg 71%
    12:00 -18°C° 0 mm 4 m/s 722 mmHg 70%
    13:00 -18°C° 0 mm 4 m/s 722 mmHg 68%
    14:00 -18°C° 0 mm 4 m/s 722 mmHg 70%
    15:00 -17°C° 0 mm 3 m/s 723 mmHg 72%
    16:00 -18°C° 0 mm 3 m/s 723 mmHg 74%
    17:00 -17°C° 0 mm 2 m/s 723 mmHg 78%
    18:00 -18°C° 0 mm 2 m/s 724 mmHg 81%
    19:00 -16°C° 0 mm 1 m/s 724 mmHg 85%
    20:00 -16°C° 0 mm 1 m/s 724 mmHg 86%
    21:00 -17°C° 0 mm 1 m/s 725 mmHg 87%
    22:00 -17°C° 0 mm 1 m/s 725 mmHg 88%
    23:00 -17°C° 0 mm 1 m/s 725 mmHg 88%

    20 Décembre, Vendredi

    Heure Température Précipitation Vent Pression Humidité
    00:00 -17°C° 0 mm 1 m/s 725 mmHg 89%
    01:00 -17°C° 0 mm 1 m/s 725 mmHg 90%
    02:00 -17°C° 0 mm 1 m/s 725 mmHg 90%
    03:00 -17°C° 0 mm 1 m/s 725 mmHg 90%
    04:00 -18°C° 0 mm 1 m/s 725 mmHg 91%
    05:00 -18°C° 0 mm 1 m/s 726 mmHg 91%
    06:00 -18°C° 0 mm 1 m/s 726 mmHg 91%
    07:00 -18°C° 0 mm 1 m/s 726 mmHg 92%
    08:00 -17°C° 0 mm 1 m/s 727 mmHg 85%
    09:00 -17°C° 0 mm 2 m/s 727 mmHg 79%
    10:00 -16°C° 0 mm 2 m/s 727 mmHg 73%
    11:00 -15°C° 0 mm 2 m/s 727 mmHg 71%
    12:00 -14°C° 0 mm 2 m/s 727 mmHg 69%
    13:00 -14°C° 0 mm 3 m/s 727 mmHg 67%
    14:00 -14°C° 0 mm 2 m/s 727 mmHg 71%
    15:00 -15°C° 0 mm 2 m/s 727 mmHg 75%
    16:00 -15°C° 0 mm 2 m/s 727 mmHg 78%
    17:00 -16°C° 0 mm 2 m/s 728 mmHg 82%
    18:00 -17°C° 0 mm 2 m/s 728 mmHg 85%
    19:00 -15°C° 0 mm 1 m/s 728 mmHg 88%
    20:00 -15°C° 0 mm 1 m/s 729 mmHg 88%
    21:00 -16°C° 0 mm 1 m/s 729 mmHg 88%
    22:00 -16°C° 0 mm 1 m/s 729 mmHg 88%
    23:00 -16°C° 0 mm 1 m/s 729 mmHg 89%
    Voir plus